Weather History for Hartsville, SC

Change the Weather History Date:

Thursday, April 18, 2013

  Actual Average (KFLO) Record (KFLO)
Temperature  
Mean Temperature 72 °F 64 °F  
Max Temperature 84 °F 76 °F 93 °F (1976)
Min Temperature 60 °F 51 °F 35 °F (2001)
Degree Days  
Heating Degree Days 0 4  
Month to date heating degree days 92  
Since 1 July heating degree days 2468  
Cooling Degree Days 7 2  
Month to date cooling degree days 33  
Year to date cooling degree days 57  
Growing Degree Days 22 (Base 50)    
Moisture  
Dew Point 60 °F    
Average Humidity 70    
Maximum Humidity 100    
Minimum Humidity 39    
Precipitation  
Precipitation 0.00 in 0.09 in 0.99 in (2014)
Month to date precipitation 1.55  
Year to date precipitation 11.03  
Sea Level Pressure  
Sea Level Pressure 30.13 in    
Wind  
Wind Speed 3 mph (SE)    
Max Wind Speed 12 mph    
Max Gust Speed 18 mph    
Visibility 9 miles    
Events      
T = Trace of Precipitation, MM = Missing Value Source: NWS Daily Summary

Daily Weather History Graph

Daily Weather History Graph

Search for Another Location

Airport:

Trip Planner

Search our weather history database for the weather conditions in past years. The results will help you decide how hot, cold, wet, or windy it might be!

Date:

Astronomy

Apr. 18, 2013 Rise Set
Actual Time 6:45 AM EDT 7:54 PM EDT
Civil Twilight 6:19 AM EDT 8:20 PM EDT
Nautical Twilight 5:48 AM EDT 8:51 PM EDT
Astronomical Twilight 5:16 AM EDT 9:24 PM EDT
Moon 12:58 PM EDT (4/18) 2:05 AM EDT (4/18)
Length of Visible Light 14h 01m
Length of Day
13h 09m
First Quarter, 51% of the Moon is Illuminated
Apr 18
First Quarter
Apr 25
Full
May 2
Last Quarter
May 9
New
May 18
First Quarter

Hourly Weather History & Observations

Time (EDT) Temp. Heat Index Dew Point Humidity Pressure Visibility Wind Dir Wind Speed Gust Speed Precip Events Conditions
12:15 AM 68.0 °F - 57.2 °F 68% 30.18 in 10.0 mi Calm Calm - N/A   Clear
12:35 AM 68.0 °F - 59.0 °F 73% 30.17 in 10.0 mi Calm Calm - N/A   Clear
12:55 AM 66.2 °F - 59.0 °F 78% 30.17 in 10.0 mi Calm Calm - N/A   Clear
1:15 AM 64.4 °F - 59.0 °F 83% 30.17 in 10.0 mi Calm Calm - N/A   Clear
1:35 AM 64.4 °F - 59.0 °F 83% 30.16 in 10.0 mi Calm Calm - N/A   Clear
1:55 AM 64.4 °F - 59.0 °F 83% 30.15 in 10.0 mi Calm Calm - N/A   Clear
2:15 AM 62.6 °F - 59.0 °F 88% 30.15 in 10.0 mi Calm Calm - N/A   Clear
2:35 AM 64.4 °F - 59.0 °F 83% 30.14 in 10.0 mi Calm Calm - N/A   Clear
2:55 AM 62.6 °F - 59.0 °F 88% 30.13 in 10.0 mi Calm Calm - N/A   Clear
3:15 AM 62.6 °F - 59.0 °F 88% 30.13 in 10.0 mi Calm Calm - N/A   Clear
3:35 AM 62.6 °F - 60.8 °F 94% 30.13 in 10.0 mi Calm Calm - N/A   Clear
3:55 AM 62.6 °F - 60.8 °F 94% 30.13 in 10.0 mi Calm Calm - N/A   Clear
4:15 AM 62.6 °F - 60.8 °F 94% 30.14 in 10.0 mi Calm Calm - N/A   Clear
4:35 AM 62.6 °F - 60.8 °F 94% 30.14 in 10.0 mi Calm Calm - N/A   Clear
4:55 AM 62.6 °F - 60.8 °F 94% 30.14 in 10.0 mi Calm Calm - N/A   Scattered Clouds
5:15 AM 62.6 °F - 60.8 °F 94% 30.14 in 10.0 mi Calm Calm - N/A   Scattered Clouds
5:35 AM 62.6 °F - 60.8 °F 94% 30.15 in 10.0 mi Calm Calm - N/A   Clear
5:55 AM 62.6 °F - 62.6 °F 100% 30.15 in 10.0 mi East 4.6 mph - N/A   Clear
6:15 AM 60.8 °F - 60.8 °F 100% 30.15 in 10.0 mi Calm Calm - N/A   Clear
6:35 AM 60.8 °F - 60.8 °F 100% 30.15 in 7.0 mi Calm Calm - N/A   Clear
6:55 AM 60.8 °F - 60.8 °F 100% 30.16 in 4.0 mi Calm Calm - N/A   Scattered Clouds
7:15 AM 62.6 °F - 62.6 °F 100% 30.17 in 0.2 mi Calm Calm - N/A   Overcast
7:35 AM 62.6 °F - 62.6 °F 100% 30.17 in 2.0 mi Calm Calm - N/A   Scattered Clouds
7:55 AM 62.6 °F - 62.6 °F 100% 30.18 in 3.0 mi Calm Calm - N/A   Clear
8:15 AM 62.6 °F - 62.6 °F 100% 30.18 in 3.0 mi Calm Calm - N/A   Clear
8:35 AM 64.4 °F - 64.4 °F 100% 30.18 in 4.0 mi Calm Calm - N/A   Clear
8:55 AM 66.2 °F - 66.2 °F 100% 30.18 in 10.0 mi ESE 5.8 mph - N/A   Clear
9:15 AM 68.0 °F - 64.4 °F 88% 30.18 in 10.0 mi East 5.8 mph - N/A   Clear
9:35 AM 69.8 °F - 64.4 °F 83% 30.18 in 10.0 mi East 3.5 mph - N/A   Clear
9:55 AM 71.6 °F - 64.4 °F 78% 30.18 in 10.0 mi SE 3.5 mph - N/A   Clear
10:15 AM 71.6 °F - 62.6 °F 73% 30.18 in 10.0 mi SE 5.8 mph - N/A   Clear
10:35 AM 73.4 °F - 62.6 °F 69% 30.19 in 10.0 mi SSE 4.6 mph - N/A   Scattered Clouds
10:55 AM 77.0 °F - 62.6 °F 61% 30.18 in 10.0 mi SSE 8.1 mph - N/A   Mostly Cloudy
11:15 AM 77.0 °F - 62.6 °F 61% 30.18 in 10.0 mi SSE 3.5 mph - N/A   Scattered Clouds
11:35 AM 78.8 °F - 62.6 °F 57% 30.18 in 10.0 mi ESE 8.1 mph - N/A   Scattered Clouds
11:55 AM 77.0 °F - 60.8 °F 57% 30.17 in 10.0 mi SSE 5.8 mph - N/A   Scattered Clouds
12:15 PM 78.8 °F - 60.8 °F 54% 30.17 in 10.0 mi SSE 4.6 mph - N/A   Mostly Cloudy
12:35 PM 80.6 °F 81.1 °F 59.0 °F 48% 30.16 in 10.0 mi South 8.1 mph - N/A   Mostly Cloudy
12:55 PM 82.4 °F 82.0 °F 57.2 °F 42% 30.15 in 10.0 mi South 4.6 mph - N/A   Scattered Clouds
1:15 PM 82.4 °F 82.0 °F 57.2 °F 42% 30.15 in 10.0 mi SSE 9.2 mph - N/A   Mostly Cloudy
1:35 PM 80.6 °F 81.1 °F 59.0 °F 48% 30.14 in 10.0 mi SSE 11.5 mph - N/A   Overcast
1:55 PM 82.4 °F 82.5 °F 59.0 °F 45% 30.13 in 10.0 mi ESE 4.6 mph - N/A   Mostly Cloudy
2:15 PM 82.4 °F 82.5 °F 59.0 °F 45% 30.12 in 10.0 mi South 8.1 mph - N/A   Scattered Clouds
2:35 PM 82.4 °F 82.5 °F 59.0 °F 45% 30.12 in 10.0 mi SE 10.4 mph - N/A   Mostly Cloudy
2:55 PM 84.2 °F 83.8 °F 59.0 °F 42% 30.11 in 10.0 mi SE 11.5 mph 17.3 mph N/A   Mostly Cloudy
3:15 PM 84.2 °F 83.5 °F 57.2 °F 40% 30.10 in 10.0 mi SE 8.1 mph 18.4 mph N/A   Mostly Cloudy
3:35 PM 84.2 °F 83.8 °F 59.0 °F 42% 30.09 in 10.0 mi SSE 9.2 mph - N/A   Scattered Clouds
3:55 PM 82.4 °F 82.0 °F 57.2 °F 42% 30.08 in 10.0 mi South 8.1 mph 16.1 mph N/A   Scattered Clouds
4:35 PM 82.4 °F 81.7 °F 55.4 °F 39% 30.07 in 10.0 mi SE 5.8 mph 16.1 mph N/A   Scattered Clouds
4:55 PM 80.6 °F 80.5 °F 55.4 °F 42% 30.07 in 10.0 mi SSE 11.5 mph - N/A   Scattered Clouds
5:15 PM 82.4 °F 81.7 °F 55.4 °F 39% 30.07 in 10.0 mi South 8.1 mph - N/A   Scattered Clouds
5:35 PM 82.4 °F 81.7 °F 55.4 °F 39% 30.06 in 10.0 mi SSE 10.4 mph 16.1 mph N/A   Scattered Clouds
5:55 PM 82.4 °F 81.7 °F 55.4 °F 39% 30.05 in 10.0 mi SE 8.1 mph 16.1 mph N/A   Scattered Clouds
6:15 PM 80.6 °F 80.5 °F 55.4 °F 42% 30.05 in 10.0 mi SE 6.9 mph - N/A   Mostly Cloudy
6:35 PM 80.6 °F 80.5 °F 55.4 °F 42% 30.04 in 10.0 mi SSE 8.1 mph 17.3 mph N/A   Scattered Clouds
6:55 PM 78.8 °F - 55.4 °F 44% 30.04 in 10.0 mi SSE 10.4 mph 18.4 mph N/A   Clear
7:15 PM 78.8 °F - 57.2 °F 47% 30.04 in 10.0 mi SSE 9.2 mph - N/A   Clear
7:35 PM 77.0 °F - 57.2 °F 50% 30.05 in 10.0 mi SSE 6.9 mph 16.1 mph N/A   Clear
7:55 PM 75.2 °F - 59.0 °F 57% 30.05 in 10.0 mi SE 8.1 mph - N/A   Clear
8:15 PM 73.4 °F - 59.0 °F 61% 30.05 in 10.0 mi SSE 6.9 mph - N/A   Clear
8:35 PM 73.4 °F - 60.8 °F 65% 30.05 in 10.0 mi SE 5.8 mph - N/A   Clear
8:55 PM 71.6 °F - 60.8 °F 69% 30.06 in 10.0 mi SE 8.1 mph - N/A   Clear
9:15 PM 71.6 °F - 60.8 °F 69% 30.07 in 10.0 mi SSE 8.1 mph - N/A   Clear
9:35 PM 71.6 °F - 60.8 °F 69% 30.07 in 10.0 mi SSE 6.9 mph - N/A   Clear
10:55 PM 68.0 °F - 62.6 °F 83% 30.07 in 10.0 mi Calm Calm - N/A   Clear
11:35 PM 68.0 °F - 64.4 °F 88% 30.06 in 10.0 mi Calm Calm - N/A   Clear
11:55 PM 68.0 °F - 66.2 °F 94% 30.06 in 10.0 mi Calm Calm - N/A   Clear